This demonstration page uses our WeatherBlox Daily Observations layout. Learn more.

41.86663, -103.66717

Hourly Observations for June 19, 2019

Temp ( °F °C ) Dew Point ( °F °C ) Humidity (%) Winds ( mph kmh ) Pressure ( in mb ) Visibility ( mi km ) Precip ( " mm )
12:07 am 00:07 Mostly Cloudy with Fog 54 12 54 12 100 100 NE 3 6 29.88 1012 0.5 0.80467 0 0
12:17 am 00:17 Mostly Cloudy with Mist and Fog 54 12.2 54 12.2 100 100 Calm 29.87 1012 1.75 2.816345 0 0
12:32 am 00:32 Partly Cloudy with Mist and Fog 53 11.7 53 11.7 100 100 Calm 29.88 1012 2.5 4.02335 0 0
12:51 am 00:51 Clear with Mist and Fog 54 12 N/A N/A Calm 29.87 1011 1.75 2.816345 0 0
12:53 am 00:53 Clear with Mist and Fog 53 11.7 53 11.7 100 100 Calm 29.85 1011 2 3.21868 0 0
12:58 am 00:58 Mostly Cloudy with Mist and Fog 52 11 52 11 100 100 Calm 29.88 1012 1 1.60934 0 0
1:03 am 01:03 Mostly Cloudy with Fog 52 11.1 52 11.1 100 100 Calm 29.88 1012 0.25 0.402335 0 0
1:10 am 01:10 Mostly Cloudy with Fog 52 11.1 52 11.1 100 100 Calm 29.88 1012 0.5 0.80467 0 0
1:43 am 01:43 Mostly Cloudy with Fog 54 12 54 12 100 100 SW 3 6 29.86 1011 0.25 0.402335 0 0
1:53 am 01:53 Mostly Cloudy with Fog 54 12.2 54 12.2 100 100 SSW 5 7 29.83 1010 0.25 0.402335 0 0
2:53 am 02:53 Mostly Cloudy with Fog 53 11.7 53 11.7 100 100 WNW 7 11 29.83 1010 0.25 0.402335 0 0
3:12 am 03:12 Mostly Cloudy with Mist and Fog 53 11.7 53 11.7 100 100 WNW 6 9 29.85 1011 0.75 1.207005 0 0
3:16 am 03:16 Mostly Cloudy with Mist and Fog 52 11.1 52 11.1 100 100 WNW 6 9 29.86 1011 2.5 4.02335 0 0
3:21 am 03:21 Partly Cloudy 52 11.1 52 11.1 100 100 WNW 5 7 29.85 1011 7 11.26538 0 0
3:34 am 03:34 Partly Cloudy with Mist and Fog 53 11.7 53 11.7 100 100 W 10 17 29.85 1011 1.75 2.816345 0 0
3:38 am 03:38 Mostly Cloudy with Mist and Fog 53 11.7 53 11.7 100 100 WNW 9 15 29.85 1011 0.75 1.207005 0 0
3:53 am 03:53 Mostly Cloudy with Mist and Fog 53 11.7 53 11.7 100 100 WNW 8 13 29.83 1010 1 1.60934 0 0
4:04 am 04:04 Cloudy with Mist and Fog 53 11.7 53 11.7 100 100 WNW 5 7 29.85 1011 2 3.21868 0 0
4:11 am 04:11 Cloudy with Mist and Fog 53 11.7 53 11.7 100 100 NW 6 9 29.85 1011 2.5 4.02335 0 0
4:18 am 04:18 Mostly Cloudy with Mist and Fog 52 11.1 52 11.1 100 100 NW 5 7 29.86 1011 5 8.0467 0 0
4:31 am 04:31 Partly Cloudy with Mist and Fog 52 11 52 11 100 100 WNW 3 6 29.86 1011 6 9.65604 0 0
4:53 am 04:53 Clear 51 10.6 51 10.6 100 100 W 5 7 29.85 1011 9 14.48406 0 0
5:53 am 05:53 Sunny 54 12 N/A N/A SSW 5 7 29.81 1010 10 16.0934 0 0
6:53 am 06:53 Sunny 55 13 N/A N/A WNW 7 11 29.83 1010 10 16.0934 0 0
7:53 am 07:53 Sunny 57 13.9 57 13.9 100 100 WNW 5 7 29.83 1010 10 16.0934 0 0
8:53 am 08:53 Sunny 63 17.2 56 13.3 78 78 WNW 12 19 29.81 1010 10 16.0934 0 0
9:53 am 09:53 Sunny 67 19.4 57 13.9 71 71 W 10 17 29.78 1009 10 16.0934 0 0
10:53 am 10:53 Sunny 72 22.2 58 14.4 61 61 WNW 10 17 29.76 1008 10 16.0934 0 0
11:53 am 11:53 Sunny 75 23.9 59 15 58 58 WNW 8 13 29.74 1007 10 16.0934 0 0
12:53 pm 12:53 Sunny 78 25.6 62 16.7 58 58 WNW 5 7 29.72 1007 10 16.0934 0 0
1:53 pm 13:53 Sunny 79 26.1 64 17.8 60 60 NW 13 20 29.69 1005 10 16.0934 0 0
2:53 pm 14:53 Sunny 81 27.2 64 17.8 57 57 VRB 3 6 29.66 1005 10 16.0934 0 0
3:53 pm 15:53 Sunny 80 26.7 64 17.8 58 58 Calm 29.64 1004 10 16.0934 0 0
4:53 pm 16:53 Sunny 76 24.4 60 15.6 58 58 SSE 7 11 29.64 1004 10 16.0934 0 0
5:53 pm 17:53 Sunny 78 25.6 63 17.2 60 60 SSE 9 15 29.61 1003 10 16.0934 0 0
6:53 pm 18:53 Sunny 76 24.4 61 16.1 60 60 S 9 15 29.6 1002 10 16.0934 0 0
7:53 pm 19:53 Sunny 75 23.9 59 15 58 58 S 13 20 29.59 1002 10 16.0934 0 0
8:53 pm 20:53 Clear 70 21.1 56 13.3 61 61 SSE 9 15 29.57 1001 10 16.0934 0 0
9:53 pm 21:53 Clear 68 20 56 13.3 65 65 SE 9 15 29.57 1001 10 16.0934 0 0
10:53 pm 22:53 Clear 71 21.7 55 12.8 57 57 SSW 18 30 29.54 1000 10 16.0934 0 0
11:53 pm 23:53 Clear 69 20.6 57 13.9 66 66 SSW 17 28 29.53 1000 10 16.0934 0 0

Powered by AerisWeather